Fort Myers, FL

5:47 AM EST on February 25, 2017 (GMT -0500)
Southwest Florida International

Weather History for KRSW - January, 2012

Change the Weather History Date:

Friday, January 20, 2012

  Actual Average Record
Temperature  
Mean Temperature 64 °F -  
Max Temperature 78 °F 74 °F 87 °F (1990)
Min Temperature 50 °F 54 °F 26 °F (2002)
Degree Days  
Heating Degree Days 1    
Growing Degree Days 14 (Base 50)    
Moisture  
Dew Point 49 °F    
Average Humidity 64    
Maximum Humidity 87    
Minimum Humidity 35    
Precipitation  
Precipitation 0.00 in - - ()
Sea Level Pressure  
Sea Level Pressure 30.15 in    
Wind  
Wind Speed 6 mph (East)    
Max Wind Speed 13 mph    
Max Gust Speed 18 mph    
Visibility 10 miles    
Events      
Averages and records for this station are not official NWS values.
T = Trace of Precipitation, MM = Missing Value Source: NWS Daily Summary

Daily Weather History Graph

Daily Weather History Graph

Search for Another Location

Airport or City:

Trip Planner

Search our weather history database for the weather conditions in past years. The results will help you decide how hot, cold, wet, or windy it might be!

Date:

Astronomy

Jan. 20, 2012 Rise Set
Actual Time 7:16 AM EST 5:59 PM EST
Civil Twilight 6:51 AM EST 6:24 PM EST
Nautical Twilight 6:23 AM EST 6:52 PM EST
Astronomical Twilight 5:55 AM EST 7:20 PM EST
Moon 4:46 AM EST (1/20) 3:36 PM EST (1/20)
Length of Visible Light 11h 33m
Length of Day
10h 43m
Waning Crescent, 8% of the Moon is Illuminated
Jan 20
Waning Crescent
Jan 23
New
Jan 30
First Quarter
Feb 7
Full
Feb 14
Last Quarter

Hourly Weather History & Observations

Time (EST) Temp. Dew Point Humidity Pressure Visibility Wind Dir Wind Speed Gust Speed Precip Events Conditions
12:53 AM 53.1 °F 44.1 °F 71% 30.14 in 10.0 mi ENE 5.8 mph - N/A   Clear
1:53 AM 53.1 °F 43.0 °F 69% 30.14 in 10.0 mi ENE 5.8 mph - N/A   Clear
2:53 AM 52.0 °F 44.1 °F 74% 30.14 in 10.0 mi ENE 5.8 mph - N/A   Clear
3:53 AM 52.0 °F 45.0 °F 77% 30.13 in 10.0 mi ENE 4.6 mph - N/A   Clear
4:53 AM 52.0 °F 45.0 °F 77% 30.13 in 10.0 mi NE 3.5 mph - N/A   Clear
5:53 AM 51.1 °F 46.0 °F 83% 30.14 in 10.0 mi ENE 6.9 mph - N/A   Clear
6:53 AM 50.0 °F 46.0 °F 86% 30.17 in 10.0 mi ENE 3.5 mph - N/A   Clear
7:53 AM 52.0 °F 48.0 °F 86% 30.17 in 10.0 mi ENE 4.6 mph - N/A   Clear
8:53 AM 60.1 °F 52.0 °F 75% 30.20 in 10.0 mi East 4.6 mph - N/A   Clear
9:53 AM 68.0 °F 53.1 °F 59% 30.21 in 10.0 mi ESE 6.9 mph - N/A   Clear
10:53 AM 71.1 °F 51.1 °F 49% 30.20 in 10.0 mi SE 12.7 mph - N/A   Clear
11:53 AM 75.0 °F 46.9 °F 37% 30.18 in 10.0 mi East 8.1 mph 18.4 mph N/A   Clear
12:53 PM 75.9 °F 48.9 °F 38% 30.15 in 10.0 mi ESE 11.5 mph 17.3 mph N/A   Clear
1:53 PM 78.1 °F 48.0 °F 35% 30.12 in 10.0 mi SSE 10.4 mph - N/A   Clear
2:53 PM 78.1 °F 48.0 °F 35% 30.12 in 10.0 mi SE 6.9 mph - N/A   Clear
3:53 PM 78.1 °F 48.0 °F 35% 30.11 in 10.0 mi ESE 8.1 mph - N/A   Clear
4:53 PM 73.0 °F 52.0 °F 48% 30.12 in 10.0 mi WSW 10.4 mph - N/A   Clear
5:53 PM 68.0 °F 51.1 °F 55% 30.12 in 10.0 mi SW 5.8 mph - N/A   Clear
6:53 PM 66.0 °F 52.0 °F 60% 30.13 in 10.0 mi Calm Calm - N/A   Clear
7:53 PM 64.0 °F 53.1 °F 67% 30.14 in 10.0 mi Calm Calm - N/A   Clear
8:53 PM 61.0 °F 53.1 °F 75% 30.16 in 10.0 mi Calm Calm - N/A   Clear
9:53 PM 59.0 °F 53.1 °F 81% 30.16 in 10.0 mi Calm Calm - N/A   Clear
10:53 PM 59.0 °F 54.0 °F 83% 30.16 in 10.0 mi Calm Calm - N/A   Clear
11:53 PM 57.0 °F 53.1 °F 87% 30.16 in 10.0 mi Calm Calm - N/A   Clear